Miscellaneous Local Product
Issued by NWS Hastings, NE

Home | Current Version | Previous Version | Graphics & Text | Print | Product List | Glossary On
Versions: 1 2 3 4 5 6 7 8 9 10 11 12 13 14 15 16 17 18 19 20 21 22 23 24 25 26 27 28 29 30 31 32 33 34 35 36 37 38 39 40 41 42 43 44 45 46 47 48 49 50
000
AXUS43 KGID 260202
MISGRI

GID CWA HOURLY WEATHER ROUNDUP
NATIONAL WEATHER SERVICE HASTINGS NE
800 PM CST SUN JAN 25 2015

NOTE: "FAIR" INDICATES FEW OR NO CLOUDS BELOW 12,000 FEET WITH NO
SIGNIFICANT WEATHER AND/OR OBSTRUCTIONS TO VISIBILITY.

...SOUTH CENTRAL NEBRASKA...

CITY           SKY/WX    TMP DP  RH WIND       PRES   REMARKS
GRAND ISLAND   CLEAR     28  23  81 SW5       30.08S WCI  23
HASTINGS       CLEAR     28  22  78 CALM      30.07F
KEARNEY        CLEAR     30  25  80 SW7       30.08R WCI  23
ORD            CLEAR     26  22  84 SW8       30.04F WCI  18
YORK           CLEAR     34  32  93 CALM      30.08S
AURORA         CLEAR     31  27  84 SW3       30.06F
LEXINGTON      PTCLDY    33  27  77 SE5       30.07R WCI  29
HOLDREGE       CLEAR     30  23  73 CALM      30.07S
HEBRON         CLEAR     28  24  86 CALM      30.10F

...NEBRASKA PANHANDLE...

CITY           SKY/WX    TMP DP  RH WIND       PRES   REMARKS
CHADRON        PTCLDY    37  31  78 SW10      30.04R WCI  30
ALLIANCE       MOCLDY    36  31  82 W9        30.05R WCI  29
SCOTTSBLUFF    CLEAR     40  32  73 NW9       30.10R WCI  34
SIDNEY         CLEAR     40  30  67 W14       30.11R WCI  32

...WESTERN AND NORTH CENTRAL NEBRASKA...

CITY           SKY/WX    TMP DP  RH WIND       PRES   REMARKS
VALENTINE      CLOUDY    36  28  73 SW5       29.99F WCI  32
AINSWORTH      CLOUDY    34  29  84 S6        29.99F WCI  28
ONEILL         PTCLDY    32  31  94 SW3       30.04S
BROKEN BOW     PTCLDY    27  23  85 CALM      30.03F
IMPERIAL       CLOUDY    43  32  65 SW7       30.09R
NORTH PLATTE   CLOUDY    35  24  64 CALM      30.05R
MCCOOK         MOCLDY    41  20  43 SW5       30.08R

...EASTERN NEBRASKA...

CITY           SKY/WX    TMP DP  RH WIND       PRES   REMARKS
NORFOLK        PTCLDY    30  28  92 SW6       30.05S WCI  24
SO SIOUX CITY  CLOUDY    36  32  85 W5        30.07R WCI  32
TEKAMAH        CLOUDY    36  33  89 CALM      30.08S
COLUMBUS       PTCLDY    28  21  74 CALM      30.08S
ALBION         CLEAR     31  28  89 CALM      30.05S
OMAHA EPPLEY   CLOUDY    37  32  82 NW7       30.08S WCI  32
OFFUTT AFB     CLOUDY    37  32  81 W7        30.08S WCI  31
MILLARD        CLOUDY    37  32  82 CALM      30.08S
LINCOLN        MOCLDY    36  30  79 CALM      30.10S
NEBRASKA CITY  CLOUDY    36  26  67 W6        30.09R WCI  31
BEATRICE       MOCLDY    33  30  88 CALM      30.10F
FALLS CITY     CLOUDY    37  27  67 NW6       30.09S WCI  32

...NORTHERN KANSAS...

CITY           SKY/WX    TMP DP  RH WIND       PRES   REMARKS
GOODLAND       PTCLDY    35  29  78 W6        30.13S WCI  30
HILL CITY      CLEAR     28  18  66 SW3       30.10F
NORTON         CLEAR     34  19  55 S3        30.08S
PHILLIPSBURG   CLEAR     36  27  69 S3        30.10S
SMITH CENTER   CLEAR     32  25  74 E6        30.11S WCI  26
BELOIT         CLEAR     25  19  80 CALM      30.11F
HAYS           CLEAR     34  18  51 CALM      30.11S
RUSSELL        CLEAR     37  25  61 E7        30.10F WCI  32
CONCORDIA      CLEAR     36  30  79 CALM      30.10F
SALINA         CLEAR     34  27  75 NW3       30.13F
TOPEKA         CLOUDY    40  30  67 NW8       30.12R WCI  34



USA.gov is the U.S. government's official web portal to all federal, state and local government web resources and services.